SCP
0 0 0 0 0 0 0 0 0 0 0 0 0 0 0 0 1 1 1 1 1 1 1 1 1 1 1 1 1 1 1 1 1 1 1 1 1 1 0 0 0 0 0 0
0 0 0 0 0 0 0 0 0 0 0 0 0 0 0 0 1 1 1 1 1 1 1 1 1 1 1 1 1 1 1 1 1 1 1 1 1 1 0 0 0 0 0 0
0 0 0 0 0 0 0 0 0 0 0 0 0 0 0 1 1 1 1 1 1 1 1 1 1 1 1 1 1 0 0 1 1 1 1 1 1 0 0 0 0 0 0 0
0 0 0 0 0 0 0 0 0 0 0 0 0 0 0 1 1 1 1 1 1 1 1 1 0 0 0 0 0 0 0 0 0 0 1 1 1 0 0 0 0 0 0 0
0 0 0 0 0 0 0 0 0 0 0 0 0 0 0 0 1 1 1 0 0 0 0 0 0 0 0 0 0 0 0 0 0 0 0 0 0 0 0 0 0 0 0 0
0 0 0 0 0 0 0 0 0 0 0 0 0 0 0 0 0 0 0 0 0 0 0 0 0 0 0 0 0 0 0 0 0 0 0 0 0 0 0 0 0 0 0 0
0 0 0 0 0 0 0 0 0 0 0 0 0 0 0 0 0 0 0 0 0 0 0 0 0 0 0 0 0 0 0 0 0 0 0 0 0 0 0 0 0 0 0 0
0 0 0 0 0 0 0 0 0 0 0 0 0 0 0 0 0 0 0 0 0 0 0 0 0 0 0 0 0 0 0 0 0 0 0 0 0 0 0 0 0 0 0 0
0 0 0 0 0 0 0 0 0 0 0 0 0 0 0 0 0 0 0 0 0 0 0 0 0 0 0 0 0 0 0 0 0 0 0 0 0 0 0 0 0 0 0 0
0 0 0 0 0 0 0 0 0 0 0 0 0 0 0 0 0 0 0 0 0 0 0 0 0 0 0 0 0 0 0 0 0 0 0 0 0 0 0 0 0 0 0 0
0 0 0 0 0 0 0 0 0 0 0 0 0 0 0 0 0 0 0 0 0 0 0 0 0 0 0 0 0 0 0 0 0 0 0 0 0 0 0 0 0 0 0 0
0 0 0 0 0 0 0 0 0 0 0 0 0 0 0 0 0 0 0 0 0 0 0 0 0 0 0 0 0 0 0 0 0 0 0 0 0 0 0 0 0 0 0 0
0 0 0 0 0 0 0 0 0 0 0 0 0 0 0 0 0 0 0 0 0 0 0 0 0 0 0 0 0 0 0 0 0 0 0 0 0 0 0 0 0 0 0 0
0 0 0 0 0 0 0 0 0 0 0 0 0 0 0 0 0 0 0 0 0 0 0 0 0 0 0 0 0 0 0 0 0 0 0 0 0 0 0 0 0 0 0 0
0 0 0 0 0 0 0 0 0 0 0 0 0 0 0 0 0 0 0 0 0 0 0 0 0 0 0 0 0 0 0 0 0 0 0 0 0 0 0 0 0 0 0 0
0 0 0 0 0 0 0 0 0 0 0 0 0 0 0 0 0 0 0 0 0 0 0 0 0 0 0 0 0 0 0 0 0 0 0 0 0 0 0 0 0 0 0 0
0 0 0 0 0 0 0 0 0 0 0 0 0 0 0 0 0 0 0 0 0 0 0 0 0 0 0 0 0 0 0 0 0 0 0 0 0 0 0 0 0 0 0 0
0 0 0 0 0 0 0 0 0 0 0 0 0 0 0 0 0 0 0 0 0 0 0 0 0 0 0 0 0 0 0 0 0 0 0 0 0 0 0 0 0 0 0 0
0 0 0 0 0 0 0 0 0 0 0 0 0 0 0 0 0 0 0 0 0 0 0 0 0 0 0 0 0 0 0 0 0 0 0 0 0 0 0 0 0 0 0 0
0 0 0 0 0 0 0 0 0 0 0 0 0 0 0 0 0 0 0 0 0 0 0 0 0 0 0 0 0 0 0 0 0 0 0 0 0 0 0 0 0 0 0 0
0 0 0 0 0 0 0 0 0 0 0 0 0 0 0 0 0 0 0 0 0 0 0 0 0 0 0 0 0 0 0 0 0 0 0 0 0 0 0 0 0 0 0 0
0 0 0 0 0 0 0 0 0 0 0 0 0 0 0 0 0 0 0 0 0 0 0 0 0 0 0 0 0 0 0 0 0 0 0 0 0 0 0 0 -0 -0 -0 0
0 0 0 0 0 0 0 0 0 0 0 0 0 0 0 0 0 0 0 0 0 0 0 0 0 0 0 0 0 0 0 0 0 0 0 0 0 0 0 0 -0 -0 -0 0
0 0 0 0 0 0 0 0 0 0 0 0 0 0 0 0 0 0 0 0 0 0 0 0 0 0 0 0 0 0 0 0 0 0 0 0 0 -0 -0 -0 -0 -0 -0 0
0 0 0 0 0 0 0 0 0 0 0 0 0 0 0 0 0 0 0 0 0 0 0 0 0 0 0 0 0 0 0 0 0 0 0 0 0 -0 -0 -0 -0 -0 0 0
0 0 0 0 0 0 0 0 0 0 0 0 0 0 0 0 0 0 0 0 0 0 0 0 0 0 0 0 0 0 0 0 0 0 0 0 -0 -0 -0 0 0 0 0 0
Wind_Speed
2 2 5 10 10 9 7 7 9 9 6 0 5 5 2 5 9 10 9 10 11 10 8 9 9 8 8 7 6 5 4 3 3 3 4 4 3 4 4 4 5 5 4 3
3 6 14 12 8 6 7 7 8 8 4 2 6 6 5 7 8 8 10 10 10 10 10 11 11 9 10 9 8 6 5 4 2 2 3 3 4 4 5 5 6 6 6 5
7 10 7 5 7 7 6 5 6 4 4 5 7 5 6 8 10 11 10 10 9 11 10 10 11 10 9 8 8 7 6 5 5 4 5 6 5 4 4 5 5 7 7 7
5 7 4 4 5 3 4 4 3 2 2 2 3 2 1 6 8 9 10 10 10 10 10 9 10 10 9 7 7 8 7 8 8 6 6 7 6 6 5 5 6 7 8 8
5 4 3 3 4 2 4 4 1 1 1 1 2 4 1 4 6 7 9 10 10 10 10 10 10 8 8 8 8 8 8 9 9 8 7 8 8 7 6 7 9 8 8 9
6 4 3 4 5 3 1 4 6 5 5 2 2 4 1 1 5 8 9 10 10 10 10 10 9 9 10 10 10 9 9 10 9 9 8 9 10 9 9 9 8 7 6 7
7 6 4 2 4 6 6 6 5 6 5 3 2 5 3 3 7 9 10 9 9 9 9 9 9 10 10 11 10 10 10 10 10 10 10 10 10 10 9 8 7 7 6 6
2 6 4 2 1 1 1 7 6 3 2 3 4 5 4 8 10 11 10 9 9 9 8 9 9 10 10 10 10 10 10 10 10 11 10 10 10 8 8 8 7 8 6 6
1 5 5 3 1 2 1 1 6 6 1 1 1 5 5 6 8 9 10 9 8 8 9 8 9 9 9 10 10 10 10 10 10 10 11 11 11 10 10 9 9 7 6 6
3 2 5 4 4 4 3 3 5 5 3 0 1 2 2 5 6 7 8 9 9 8 9 9 8 8 8 9 9 10 10 11 10 10 10 10 10 10 9 9 9 8 7 6
3 2 6 5 2 1 3 4 4 3 4 4 1 1 1 7 8 8 8 9 9 9 9 8 8 8 8 9 9 10 10 10 10 10 10 10 9 9 9 8 8 7 6 7
2 4 1 4 2 1 4 3 4 4 1 3 3 1 3 6 7 8 9 9 9 9 8 9 9 9 9 9 9 9 9 9 9 8 9 9 8 8 8 8 7 7 7 7
4 5 3 6 7 6 4 3 3 5 4 3 3 1 3 7 8 8 9 10 9 9 9 9 8 8 8 8 8 8 8 8 7 8 8 8 8 7 7 6 6 6 7 7
6 4 5 4 4 1 3 5 4 5 4 2 3 5 4 6 7 7 8 10 10 9 9 9 7 7 7 7 7 7 7 6 6 6 7 7 6 5 5 5 5 6 6 6
5 3 1 2 1 5 7 7 6 5 3 5 6 6 6 6 7 8 9 9 10 10 9 8 7 6 6 7 6 6 6 5 5 6 6 5 5 5 5 5 5 5 6 6
4 3 2 3 4 8 8 8 8 7 6 7 8 4 4 6 7 7 8 9 9 9 9 9 8 7 6 6 6 5 5 4 5 6 5 5 5 5 5 5 5 5 5 5
3 4 3 1 1 6 5 3 5 5 3 4 4 5 9 7 7 7 8 9 9 9 9 9 8 6 5 5 5 5 4 5 5 5 4 4 4 4 4 5 5 4 4 4
6 4 3 1 4 4 1 2 9 9 5 5 7 8 8 8 6 5 6 8 9 9 9 8 7 6 5 4 4 5 5 5 5 4 4 4 4 4 3 4 4 3 2 3
6 6 4 3 3 2 2 2 4 6 3 3 9 10 10 11 9 6 5 7 7 8 7 6 6 6 5 5 5 5 5 4 5 4 4 3 3 3 3 3 2 1 2 2
4 5 5 4 4 2 2 1 5 9 3 2 8 11 10 7 5 3 5 8 8 8 7 6 6 6 5 4 5 5 4 5 4 4 3 3 3 3 2 2 1 1 2 2
2 3 3 3 3 1 2 0 3 3 5 5 7 9 8 4 4 8 9 8 8 7 7 6 6 5 4 4 5 5 4 4 3 3 3 3 2 2 2 1 1 2 2 2
4 3 2 3 3 4 4 3 4 4 4 8 8 8 9 10 11 10 10 9 8 7 7 6 5 4 4 4 5 5 3 2 2 3 3 2 2 1 2 3 2 2 3 3
3 5 5 4 4 3 2 5 5 8 8 7 8 10 13 12 11 10 9 8 7 7 6 5 5 5 3 3 4 4 2 2 3 3 2 2 2 3 3 3 3 3 3 3
2 4 6 5 3 4 6 7 6 8 9 9 12 12 12 12 11 10 8 7 6 6 6 5 5 5 3 2 3 3 2 2 3 2 1 1 2 2 3 3 3 3 3 3
5 5 6 5 5 6 5 7 10 11 12 12 11 10 11 12 11 9 7 6 6 5 4 4 5 4 4 3 2 2 2 2 2 1 1 1 2 2 2 2 2 2 1 2
2 7 8 8 10 8 7 8 12 12 12 12 13 10 9 10 10 8 7 6 5 5 4 4 4 4 3 3 2 2 2 2 2 1 1 1 1 1 2 2 2 2 1 1
Wind_Direction
264 109 242 240 219 215 242 265 274 273 276 259 176 175 129 88 101 103 100 92 88 82 70 61 63 73 65 54 61 69 62 83 108 126 127 125 119 96 82 70 63 64 68 86
346 258 242 243 245 238 250 268 279 292 312 58 117 95 77 84 97 99 100 94 89 80 63 57 53 51 59 48 39 46 31 27 57 100 120 119 110 93 82 67 57 52 59 62
223 250 257 251 261 259 263 245 261 266 1 50 89 52 73 80 83 79 77 80 81 86 75 62 58 46 52 48 38 36 27 35 45 70 102 101 92 83 71 62 55 46 54 61
252 263 281 287 270 240 264 253 257 298 34 294 95 126 97 108 89 82 77 73 68 67 71 66 60 55 48 46 48 46 36 43 45 55 84 101 104 100 85 76 67 53 51 56
274 284 304 286 267 268 238 253 281 258 90 15 27 108 191 123 102 95 86 80 72 67 64 63 62 57 56 52 56 52 44 43 45 56 71 90 92 95 92 84 72 61 53 54
263 274 249 252 281 277 320 22 16 37 61 1 282 124 229 201 144 121 98 89 79 71 66 60 56 54 56 52 53 54 54 52 52 60 70 86 97 99 97 87 81 69 60 57
321 320 314 311 345 352 49 69 31 9 17 276 338 90 58 43 103 113 110 96 82 74 67 63 59 58 55 51 52 54 54 50 51 61 68 77 88 92 91 88 85 79 68 61
336 313 312 339 139 257 333 126 147 174 219 285 16 83 83 82 90 96 99 95 88 80 72 68 65 63 61 57 55 58 58 59 59 64 67 71 78 81 81 78 80 77 73 68
187 279 305 324 330 136 32 73 167 140 148 65 61 111 113 102 105 107 106 100 90 84 78 74 69 64 63 61 58 59 64 64 62 67 70 68 72 78 81 79 76 76 73 74
156 281 311 324 32 26 124 133 74 92 130 182 358 127 172 163 147 132 119 114 105 92 84 78 79 72 68 67 65 64 67 68 64 65 70 76 72 75 79 80 77 74 69 68
116 94 327 3 46 347 43 53 84 96 132 145 198 278 253 176 165 148 128 118 112 106 99 89 82 77 74 71 69 68 67 68 67 69 72 74 73 74 76 75 73 71 67 65
122 112 307 292 290 128 106 117 124 130 158 130 137 301 10 131 134 129 122 117 113 107 100 93 89 83 78 75 74 74 74 75 74 74 75 76 75 73 74 73 68 66 65 61
118 98 43 350 349 10 49 53 100 121 111 123 133 140 59 103 107 117 128 125 118 111 102 94 90 87 86 84 82 80 82 82 80 81 80 77 75 75 73 72 71 71 71 67
108 99 141 186 236 272 55 45 60 94 107 121 138 141 130 121 127 129 129 125 119 115 108 103 96 93 93 91 89 87 85 86 88 85 83 80 77 76 72 70 72 73 77 74
96 102 165 233 159 95 83 67 65 82 127 137 147 146 165 153 139 132 127 124 121 118 116 113 108 103 100 97 95 93 91 90 92 90 86 81 78 75 72 70 72 75 78 82
85 105 67 23 74 87 73 68 76 77 85 109 119 111 123 120 118 125 131 133 130 130 127 121 116 113 110 109 108 104 99 98 94 91 89 85 81 79 77 77 78 77 75 76
98 106 92 350 87 71 44 31 90 90 87 129 147 152 139 130 134 142 143 138 134 131 130 127 123 119 117 114 114 116 113 104 96 93 93 86 81 79 79 89 81 80 84 86
123 108 115 109 58 71 253 93 105 96 63 88 110 129 138 129 116 106 126 135 133 133 131 127 122 116 111 110 107 108 104 103 101 98 95 91 89 85 79 79 81 83 89 96
132 130 110 99 92 117 134 117 128 112 75 97 120 122 119 116 95 76 93 116 121 121 120 118 117 110 102 99 102 104 99 97 103 105 103 101 101 96 87 82 84 96 98 91
80 94 106 112 122 168 246 328 122 101 105 153 132 139 142 135 123 140 124 115 113 113 114 114 112 104 100 98 102 102 98 97 102 109 113 113 111 108 107 108 100 96 110 114
45 47 84 108 114 178 292 252 111 127 200 160 142 146 149 140 136 133 125 116 117 116 116 116 113 108 112 113 106 102 102 111 126 115 103 97 104 110 112 89 71 80 79 79
137 118 107 112 123 237 302 64 123 161 124 124 124 127 118 111 111 117 121 122 122 120 119 118 112 108 112 114 110 110 120 143 123 101 92 91 91 87 89 78 57 56 73 73
114 156 144 139 178 211 76 108 122 122 116 118 120 123 123 120 121 122 122 125 126 126 124 121 119 116 112 120 124 128 159 143 113 96 90 88 73 60 71 84 76 58 62 73
108 110 99 93 115 112 101 101 102 113 118 122 127 128 127 125 128 125 128 129 128 127 127 123 119 118 121 133 137 160 161 129 111 107 96 98 89 66 61 68 80 83 78 78
164 111 97 103 137 107 101 118 118 112 114 117 120 124 128 129 130 130 131 133 134 132 131 131 135 143 154 155 162 177 157 122 115 123 124 109 113 113 97 75 71 100 122 158
184 148 150 180 179 149 153 143 129 125 126 128 126 121 125 130 132 131 132 134 134 136 136 140 148 155 160 159 174 197 190 161 144 126 125 143 140 129 127 118 60 41 146 130